Tracking 17884 objects as of 6-December-2016
HD Live streaming from Space Station
objects crossing your sky now

SDS-4

Track SDS-4 now!
10-day predictions
SDS-4 is classified as:


NORAD ID: 38339
Int'l Code: 2012-025C
Perigee: 661.6 km
Apogee: 672.8 km
Inclination: 98.4 °
Period: 97.9 minutes
Semi major axis: 7038 km
RCS: 0.47 m2 (medium)
Launch date: May 17, 2012
Source: Japan (JPN)
Launch site: TANEGASHIMA SPACE CENTER (TNSTA)
Your satellite tracking list
Your tracking list is empty





NASA's NSSDC Master Catalog

Two Line Element Set (TLE):
1 38339U 12025C   16340.88708282  .00000073  00000-0  20806-4 0  9993
2 38339  98.3809 322.8538 0007951 159.3946 200.7581 14.70313308244198
Source of the keplerian elements: AFSPC